Galesburg, IL

2:02 PM CST on February 14, 2016 (GMT -0600)
Galesburg Municipal

Weather History for KGBG - December, 2013

Change the Weather History Date:

Tuesday, December 10, 2013

  Actual Average Record
Temperature  
Mean Temperature 10 °F -  
Max Temperature 23 °F 36 °F 60 °F (1979)
Min Temperature -4 °F 21 °F -7 °F (1972)
Degree Days  
Heating Degree Days 56    
Moisture  
Dew Point 7 °F    
Average Humidity 74    
Maximum Humidity 91    
Minimum Humidity 59    
Precipitation  
Precipitation 0.00 in - - ()
Sea Level Pressure  
Sea Level Pressure 30.18 in    
Wind  
Wind Speed 10 mph (WSW)    
Max Wind Speed 25 mph    
Max Gust Speed 33 mph    
Visibility 10 miles    
Events      
Averages and records for this station are not official NWS values.
T = Trace of Precipitation, MM = Missing Value Source: NWS Daily Summary

Daily Weather History Graph

Daily Weather History Graph

Search for Another Location

Airport or City:

Trip Planner

Search our weather history database for the weather conditions in past years. The results will help you decide how hot, cold, wet, or windy it might be!

Date:

Astronomy

Dec. 10, 2013 Rise Set
Actual Time 7:15 AM CST 4:33 PM CST
Civil Twilight 6:44 AM CST 5:04 PM CST
Nautical Twilight 6:10 AM CST 5:39 PM CST
Astronomical Twilight 5:36 AM CST 6:12 PM CST
Moon 12:37 PM CST (12/10) 12:31 AM CST (12/10)
Length of Visible Light 10h 19m
Length of Day
9h 17m
Waxing Gibbous, 62% of the Moon is Illuminated
Dec 10
Waxing Gibbous
Dec 17
Full
Dec 25
Last Quarter
Jan 1
New
Jan 7
First Quarter

Hourly Weather History & Observations

Time (CST) Temp. Windchill Dew Point Humidity Pressure Visibility Wind Dir Wind Speed Gust Speed Precip Events Conditions
12:15 AM -1.3 °F -9.3 °F -3.6 °F 90% 30.22 in 10.0 mi SSW 3.5 mph - N/A   Clear
12:35 AM -0.9 °F -8.9 °F -3.5 °F 89% 30.22 in 10.0 mi SSW 3.5 mph - N/A   Clear
12:55 AM -0.9 °F - -3.1 °F 91% 30.21 in 10.0 mi Calm Calm - N/A   Clear
1:15 AM -2.9 °F - -5.1 °F 90% 30.21 in 10.0 mi Calm Calm - N/A   Clear
1:35 AM -4.2 °F - -6.3 °F 90% 30.20 in 10.0 mi Calm Calm - N/A   Clear
1:55 AM -2.7 °F -13.1 °F -4.9 °F 90% 30.18 in 10.0 mi South 4.6 mph - N/A   Clear
2:15 AM -0.6 °F -14.9 °F -3.3 °F 88% 30.17 in 10.0 mi South 8.1 mph - N/A   Clear
2:35 AM 1.6 °F -11.0 °F -1.3 °F 88% 30.16 in 10.0 mi South 6.9 mph - N/A   Clear
2:55 AM 1.2 °F -12.7 °F -2.2 °F 86% 30.15 in 10.0 mi SSE 8.1 mph - N/A   Clear
3:15 AM 2.1 °F -11.6 °F -1.1 °F 86% 30.15 in 10.0 mi South 8.1 mph - N/A   Clear
3:35 AM 2.5 °F -13.1 °F -1.1 °F 85% 30.13 in 10.0 mi South 10.4 mph - N/A   Clear
3:55 AM 5.2 °F -12.7 °F 1.8 °F 86% 30.13 in 10.0 mi SSW 15.0 mph - N/A   Mostly Cloudy
4:35 AM 9.0 °F -10.5 °F 2.7 °F 76% 30.09 in 10.0 mi SSW 20.7 mph 26.5 mph N/A   Overcast
4:55 AM 9.7 °F -10.9 °F 2.8 °F 74% 30.06 in 10.0 mi SSW 24.2 mph 27.6 mph N/A   Overcast
5:15 AM 10.8 °F -7.2 °F 2.8 °F 70% 30.06 in 10.0 mi SSW 18.4 mph 27.6 mph N/A   Overcast
5:35 AM 9.5 °F -8.3 °F 2.7 °F 74% 30.07 in 10.0 mi SSW 17.3 mph - N/A   Scattered Clouds
5:55 AM 9.3 °F -8.6 °F 2.7 °F 74% 30.06 in 10.0 mi SSW 17.3 mph - N/A   Scattered Clouds
6:15 AM 10.4 °F -7.2 °F 3.2 °F 73% 30.04 in 10.0 mi SSW 17.3 mph - N/A   Scattered Clouds
6:35 AM 10.2 °F -6.9 °F 3.0 °F 73% 30.06 in 10.0 mi SSW 16.1 mph - N/A   Scattered Clouds
6:55 AM 12.2 °F -3.7 °F 3.9 °F 69% 30.06 in 10.0 mi SW 15.0 mph 23.0 mph N/A   Mostly Cloudy
7:15 AM 13.1 °F -4.6 °F 4.6 °F 69% 30.06 in 10.0 mi SW 19.6 mph 27.6 mph N/A   Overcast
7:35 AM 13.1 °F -3.1 °F 5.5 °F 72% 30.07 in 10.0 mi SW 16.1 mph - N/A   Overcast
7:55 AM 13.1 °F -1.4 °F 5.7 °F 72% 30.08 in 10.0 mi SW 12.7 mph 17.3 mph N/A   Mostly Cloudy
8:15 AM 14.2 °F 0.7 °F 6.4 °F 71% 30.09 in 10.0 mi SW 11.5 mph - N/A   Scattered Clouds
8:35 AM 15.6 °F 1.2 °F 7.7 °F 71% 30.08 in 10.0 mi WSW 13.8 mph - N/A   Scattered Clouds
8:55 AM 17.6 °F 2.2 °F 8.8 °F 68% 30.10 in 10.0 mi WSW 17.3 mph 23.0 mph N/A   Clear
9:15 AM 18.9 °F 3.8 °F 10.0 °F 69% 30.10 in 10.0 mi WSW 17.3 mph 23.0 mph N/A   Clear
9:35 AM 20.1 °F 5.4 °F 11.5 °F 69% 30.11 in 10.0 mi WSW 17.3 mph 27.6 mph N/A   Clear
9:55 AM 20.7 °F 4.9 °F 12.4 °F 70% 30.12 in 10.0 mi West 20.7 mph 27.6 mph N/A   Clear
10:15 AM 21.9 °F 6.2 °F 13.6 °F 70% 30.13 in 10.0 mi West 21.9 mph 29.9 mph N/A   Clear
10:35 AM 22.3 °F 6.6 °F 13.3 °F 68% 30.13 in 10.0 mi West 21.9 mph 31.1 mph N/A   Clear
10:55 AM 22.6 °F 7.1 °F 13.5 °F 68% 30.14 in 10.0 mi West 21.9 mph 33.4 mph N/A   Clear
11:15 AM 23.0 °F 7.2 °F 14.2 °F 69% 30.14 in 10.0 mi West 23.0 mph 29.9 mph N/A   Clear
11:35 AM 23.0 °F 7.2 °F 13.5 °F 67% 30.14 in 10.0 mi West 23.0 mph 28.8 mph N/A   Clear
11:55 AM 23.5 °F 8.3 °F 13.1 °F 64% 30.15 in 10.0 mi West 21.9 mph 29.9 mph N/A   Clear
12:15 PM 22.5 °F 5.9 °F 11.1 °F 62% 30.16 in 10.0 mi West 25.3 mph 33.4 mph N/A   Clear
12:35 PM 22.1 °F 7.2 °F 11.5 °F 64% 30.17 in 10.0 mi West 19.6 mph 28.8 mph N/A   Clear
12:55 PM 22.5 °F 8.9 °F 11.5 °F 63% 30.17 in 10.0 mi West 16.1 mph - N/A   Clear
1:15 PM 22.8 °F 7.4 °F 11.5 °F 62% 30.17 in 10.0 mi West 21.9 mph 27.6 mph N/A   Clear
1:35 PM 22.6 °F 7.5 °F 11.3 °F 62% 30.17 in 10.0 mi West 20.7 mph 26.5 mph N/A   Clear
1:55 PM 22.1 °F 7.2 °F 10.8 °F 62% 30.18 in 10.0 mi West 19.6 mph - N/A   Clear
2:15 PM 22.3 °F 7.8 °F 10.8 °F 61% 30.19 in 10.0 mi West 18.4 mph - N/A   Clear
2:35 PM 22.1 °F 9.5 °F 10.8 °F 62% 30.19 in 10.0 mi West 13.8 mph - N/A   Clear
2:55 PM 21.9 °F 8.2 °F 9.7 °F 59% 30.20 in 10.0 mi West 16.1 mph 20.7 mph N/A   Clear
3:15 PM 21.2 °F 9.5 °F 10.2 °F 63% 30.20 in 10.0 mi West 11.5 mph - N/A   Clear
3:35 PM 21.2 °F 10.1 °F 10.2 °F 63% 30.22 in 10.0 mi West 10.4 mph - N/A   Clear
3:55 PM 20.5 °F 10.0 °F 10.4 °F 65% 30.22 in 10.0 mi West 9.2 mph - N/A   Clear
4:15 PM 19.8 °F 9.1 °F 9.5 °F 64% 30.20 in 10.0 mi West 9.2 mph - N/A   Clear
4:35 PM 17.6 °F 9.3 °F 8.6 °F 68% 30.21 in 10.0 mi West 5.8 mph - N/A   Clear
4:55 PM 15.6 °F 7.0 °F 7.9 °F 72% 30.20 in 10.0 mi West 5.8 mph - N/A   Clear
5:15 PM 15.3 °F 7.9 °F 7.7 °F 72% 30.21 in 10.0 mi WSW 4.6 mph - N/A   Clear
5:35 PM 15.8 °F 6.1 °F 8.6 °F 73% 30.23 in 10.0 mi WSW 6.9 mph - N/A   Clear
5:55 PM 16.5 °F 9.4 °F 8.2 °F 70% 30.23 in 10.0 mi WNW 4.6 mph - N/A   Clear
6:15 PM 15.1 °F 9.4 °F 8.4 °F 75% 30.24 in 10.0 mi NW 3.5 mph - N/A   Clear
6:35 PM 14.9 °F 9.2 °F 8.8 °F 77% 30.25 in 10.0 mi NW 3.5 mph - N/A   Clear
6:55 PM 14.9 °F - 9.0 °F 77% 30.24 in 10.0 mi Calm Calm - N/A   Clear
7:15 PM 14.2 °F - 8.6 °F 78% 30.24 in 10.0 mi Calm Calm - N/A   Clear
7:35 PM 14.7 °F - 9.5 °F 80% 30.25 in 10.0 mi Calm Calm - N/A   Clear
7:55 PM 15.1 °F - 10.8 °F 83% 30.25 in 10.0 mi Calm Calm - N/A   Clear
8:15 PM 14.9 °F - 11.3 °F 86% 30.26 in 10.0 mi Calm Calm - N/A   Mostly Cloudy
8:35 PM 15.8 °F - 10.9 °F 81% 30.28 in 10.0 mi Calm Calm - N/A   Overcast
8:55 PM 16.0 °F - 10.9 °F 81% 30.27 in 10.0 mi Calm Calm - N/A   Overcast
9:15 PM 15.8 °F - 11.1 °F 82% 30.27 in 10.0 mi Calm Calm - N/A   Overcast
9:35 PM 15.8 °F - 10.6 °F 80% 30.26 in 10.0 mi Calm Calm - N/A   Scattered Clouds
9:55 PM 15.6 °F - 11.1 °F 82% 30.27 in 10.0 mi Calm Calm - N/A   Clear
10:15 PM 16.2 °F - 10.8 °F 79% 30.27 in 10.0 mi Calm Calm - N/A   Mostly Cloudy
10:35 PM 16.9 °F - 10.8 °F 77% 30.27 in 10.0 mi Calm Calm - N/A   Overcast
10:55 PM 17.6 °F - 11.1 °F 76% 30.27 in 10.0 mi Calm Calm - N/A   Overcast
11:15 PM 17.6 °F - 12.4 °F 80% 30.27 in 10.0 mi Calm Calm - N/A   Overcast
11:35 PM 18.3 °F 11.5 °F 12.2 °F 77% 30.27 in 10.0 mi East 4.6 mph - N/A   Overcast
11:55 PM 18.3 °F 11.5 °F 12.2 °F 77% 30.26 in 10.0 mi East 4.6 mph - N/A   Overcast